Погода в Бариновке

Россия / Самарская область     52°55′13″N   50°50′03″E
темп.,
°C
ветер,
м/с
пор.,
м/с
влажн.,
%
обл.,
%
осадки,
мм/ч
давл.,
гПа
погр.,
м
11 мая, вт
вт1101:00+15в4126344 0.0 1019196
04:00+15в41259100 0.0 1020242
07:00+16вюв4106197 0.0 1022311
10:00+22юв584340 0.0 10231236
13:00+24юв6103699 0.0 10242313
16:00+24вюв793669 0.0 10242638
19:00+21вюв5104443 0.0 1024293
22:00+17юв3554100 0.0 102575
12 мая, ср
ср1201:00+16вюв2265100 0.0 102532
04:00+14в3770100 0.0 1026137
07:00+17в376399 0.0 1026220
10:00+17в4962100 0.0 1026287
13:00+18вюв5956100 0.0 1026341
16:00+22вюв684598 0.0 10261013
19:00+19юв3559100 0.0 102694
22:00+18вюв365584 0.0 1026141
13 мая, чт
чт1301:00+14в475941 0.0 1025113
04:00+14вюв4115911 0.0 1025220
07:00+16в51160100 0.0 1025280
10:00+21юв5842100 0.0 1025693
13:00+25юв78295 0.0 10251579
16:00+26юв78285 0.0 10241917
19:00+22юв4946100 0.0 1024171
22:00+17юв49545 0.0 1024124
14 мая, пт
пт1401:00+16юв495595 0.0 1024133
04:00+15юв4105689 0.0 1024155
07:00+18ююв412555 0.0 1024294
10:00+24ю57355 0.0 1024571
13:00+28ю67277 0.0 10241494
16:00+27ю682654 0.0 10241482
19:00+24ю48410 0.0 1023157
22:00+19ююв45450 0.0 102368
15 мая, сб
сб1501:00+17ююв35485 0.0 102365
04:00+16ююв33505 0.0 102340
07:00+19ююв37535 0.0 1023186
10:00+26ю573319 0.0 1023687
13:00+29ю5624100 0.0 10222086
16:00+29ю452222 0.0 10202446
19:00+26ююв34385 0.0 102046
22:00+21ю33420 0.0 102030